KE8DAF-15 Weather Reports


time (UTC)temp
F
wind
direction
speed
knots
gust
knots
rain 1hr
in
rain 24hr
in
rain mn
in
humidity
%
barometer
mb
20260509102442 45 134 0.9 1.7 0.00 0.00 0.00 60 986.4
20260509101942 45 135 0.9 1.7 0.00 0.00 0.00 60 986.6
20260509101442 45 144 0.9 0.9 0.00 0.00 0.00 60 986.7
20260509100942 46 124 0.0 1.7 0.00 0.00 0.00 59 986.7
20260509100442 46 172 0.0 0.9 0.00 0.00 0.00 60 986.8
20260509095942 46 148 0.9 1.7 0.00 0.00 0.00 60 986.9
20260509095442 45 178 0.0 2.6 0.00 0.00 0.00 60 986.9
20260509094942 45 149 0.0 1.7 0.00 0.00 0.00 60 987.0
20260509094442 45 74 0.9 1.7 0.00 0.00 0.00 60 986.9
20260509093942 45 130 0.9 1.7 0.00 0.00 0.00 61 987.0
20260509093442 45 126 0.9 1.7 0.00 0.00 0.00 60 987.2
20260509092942 45 153 0.9 2.6 0.00 0.00 0.00 60 987.2
20260509092442 45 151 0.9 0.9 0.00 0.00 0.00 61 987.3
20260509091942 45 144 0.0 1.7 0.00 0.00 0.00 61 987.4
20260509091442 45 149 0.9 0.9 0.00 0.00 0.00 60 987.4
20260509090942 46 149 0.9 2.6 0.00 0.00 0.00 60 987.4
20260509090442 46 138 0.9 1.7 0.00 0.00 0.00 59 987.4
20260509085942 46 117 0.9 1.7 0.00 0.00 0.00 59 987.5
20260509085442 46 159 0.9 1.7 0.00 0.00 0.00 59 987.6
20260509084942 46 161 0.9 1.7 0.00 0.00 0.00 59 987.6
20260509084442 46 154 0.9 2.6 0.00 0.00 0.00 58 987.7
20260509083942 47 161 0.9 1.7 0.00 0.00 0.00 59 987.7
20260509083442 47 155 0.9 1.7 0.00 0.00 0.00 58 987.9
20260509082942 47 146 0.0 1.7 0.00 0.00 0.00 59 987.9
20260509082442 47 151 0.0 1.7 0.00 0.00 0.00 59 988.0
20260509081942 47 144 0.9 2.6 0.00 0.00 0.00 59 988.2
20260509081442 47 115 0.9 1.7 0.00 0.00 0.00 58 988.1
20260509080942 47 165 0.9 1.7 0.00 0.00 0.00 59 988.2
20260509080442 47 159 0.9 2.6 0.00 0.00 0.00 59 988.2
20260509075942 47 160 0.9 1.7 0.00 0.00 0.00 59 988.3
20260509075442 47 150 1.7 4.3 0.00 0.00 0.00 59 988.4
20260509075019 47 151 1.7 4.3 0.00 0.00 0.00 59 988.5
20260509074942 47 151 1.7 4.3 0.00 0.00 0.00 59 988.5
20260509074442 47 158 0.9 4.3 0.00 0.00 0.00 59 988.6
20260509073942 46 150 0.9 1.7 0.00 0.00 0.00 60 988.7
20260509073442 46 163 0.9 1.7 0.00 0.00 0.00 61 988.7
20260509072942 46 161 0.9 1.7 0.00 0.00 0.00 61 988.9
20260509072442 46 155 0.0 1.7 0.00 0.00 0.00 62 988.9
20260509071942 46 149 0.0 0.0 0.00 0.00 0.00 63 989.0
20260509071442 46 146 0.0 0.0 0.00 0.00 0.00 63 989.2
20260509070942 46 147 0.0 0.9 0.00 0.00 0.00 64 989.2
20260509070442 46 348 0.9 2.6 0.00 0.00 0.00 64 989.3
20260509065942 46 114 0.9 1.7 0.00 0.00 0.00 63 989.4
20260509065442 46 115 0.9 1.7 0.00 0.00 0.00 61 989.7
20260509064942 46 165 0.9 3.5 0.00 0.00 0.00 61 989.5
20260509064442 46 157 1.7 2.6 0.00 0.00 0.00 60 989.5
20260509063942 46 163 1.7 3.5 0.00 0.00 0.00 60 989.6
20260509063442 46 139 2.6 5.2 0.00 0.00 0.00 60 989.7
20260509062942 46 159 2.6 4.3 0.00 0.00 0.00 59 989.8
20260509062442 46 163 2.6 4.3 0.00 0.00 0.00 59 989.9
20260509061942 46 158 2.6 4.3 0.00 0.00 0.00 59 990.0
20260509061442 46 147 2.6 4.3 0.00 0.00 0.00 58 990.2
20260509060942 46 152 2.6 4.3 0.00 0.00 0.00 58 990.3
20260509060443 46 149 2.6 5.2 0.00 0.00 0.00 59 990.4
20260509055942 46 146 2.6 4.3 0.00 0.00 0.00 59 990.5
20260509055443 46 153 2.6 4.3 0.00 0.00 0.00 60 990.5
20260509054943 46 153 2.6 4.3 0.00 0.00 0.00 60 990.7
20260509054443 46 157 2.6 5.2 0.00 0.00 0.00 60 990.7
20260509053943 46 152 1.7 4.3 0.00 0.00 0.00 61 990.7
20260509053443 46 165 1.7 3.5 0.00 0.00 0.00 61 990.8
20260509052943 46 153 1.7 3.5 0.00 0.00 0.00 61 990.9
20260509052443 46 157 1.7 4.3 0.00 0.00 0.00 61 991.0
20260509051943 46 168 0.9 2.6 0.00 0.00 0.00 61 991.0
20260509051443 46 156 0.9 3.5 0.00 0.00 0.00 61 991.1
20260509050943 46 167 1.7 2.6 0.00 0.00 0.00 61 991.1
20260509050443 46 165 1.7 3.5 0.00 0.00 0.00 60 991.1
20260509045943 46 166 1.7 4.3 0.00 0.00 0.00 60 991.1
20260509045443 46 153 2.6 4.3 0.00 0.00 0.00 60 991.2
20260509044943 46 158 2.6 5.2 0.00 0.00 0.00 60 991.2
20260509044443 46 157 2.6 4.3 0.00 0.00 0.00 60 991.2
20260509043943 46 150 2.6 5.2 0.00 0.00 0.00 60 991.2
20260509043443 46 134 2.6 7.0 0.00 0.00 0.00 60 991.2
20260509042943 46 166 2.6 6.1 0.00 0.00 0.00 60 991.3
20260509042443 46 152 2.6 6.1 0.00 0.00 0.00 61 991.4
20260509041943 46 153 2.6 5.2 0.00 0.00 0.00 60 991.5
20260509041443 46 153 2.6 6.1 0.00 0.00 0.00 60 991.6
20260509040943 46 156 2.6 5.2 0.00 0.00 0.00 60 991.6
20260509040443 46 157 2.6 5.2 0.00 0.00 0.00 60 991.7
20260509035943 46 147 2.6 6.1 0.00 0.00 0.00 61 991.8
20260509035443 46 157 2.6 5.2 0.00 0.00 0.00 60 991.8
20260509034943 46 154 2.6 7.0 0.00 0.00 0.00 60 991.9
20260509034443 46 152 2.6 6.1 0.00 0.00 0.00 60 991.9
20260509033943 46 154 2.6 6.1 0.00 0.00 0.00 59 992.0
20260509033443 45 153 2.6 5.2 0.00 0.00 0.00 60 992.1
20260509032943 45 129 2.6 4.3 0.00 0.00 0.00 60 992.1
20260509032443 45 158 1.7 5.2 0.00 0.00 0.00 60 992.2
20260509031943 45 142 1.7 3.5 0.00 0.00 0.00 61 992.3
20260509031443 45 133 1.7 4.3 0.00 0.00 0.00 61 992.4
20260509030943 45 146 1.7 5.2 0.00 0.00 0.00 62 992.4
20260509030443 45 171 1.7 3.5 0.00 0.00 0.00 63 992.5
20260509025943 45 156 0.9 2.6 0.00 0.00 0.00 64 992.5
20260509025443 45 161 1.7 4.3 0.00 0.00 0.00 64 992.6
20260509024943 44 150 2.6 5.2 0.00 0.00 0.00 63 992.8
20260509024443 44 148 1.7 5.2 0.00 0.00 0.00 63 992.8
20260509023943 44 156 1.7 2.6 0.00 0.00 0.00 63 992.8
20260509023443 44 162 1.7 2.6 0.00 0.00 0.00 64 992.8
20260509022943 44 150 1.7 3.5 0.00 0.00 0.00 64 992.8
20260509022443 44 163 1.7 2.6 0.00 0.00 0.00 65 992.8
20260509021943 44 153 1.7 3.5 0.00 0.00 0.00 65 992.9
20260509021443 44 165 1.7 3.5 0.00 0.00 0.00 65 992.8
20260509020943 43 150 0.9 2.6 0.00 0.00 0.00 66 992.8
20260509020443 43 168 0.9 1.7 0.00 0.00 0.00 65 992.9
20260509015943 43 160 0.9 3.5 0.00 0.00 0.00 65 992.9
20260509015443 43 169 0.9 3.5 0.00 0.00 0.00 64 992.8
20260509014943 43 165 0.9 1.7 0.00 0.00 0.00 64 992.8
20260509014443 43 157 0.9 1.7 0.00 0.00 0.00 64 992.8
20260509013943 43 162 0.9 1.7 0.00 0.00 0.00 64 992.8
20260509013444 43 164 0.9 1.7 0.00 0.00 0.00 64 992.8
20260509012943 43 162 0.0 1.7 0.00 0.00 0.00 65 992.8
20260509012443 44 161 0.0 0.0 0.00 0.00 0.00 65 992.7
20260509011943 44 159 0.0 0.0 0.00 0.00 0.00 65 992.7
20260509011443 44 153 0.0 0.0 0.00 0.00 0.00 65 992.7
20260509010943 44 148 0.0 0.0 0.00 0.00 0.00 66 992.6
20260509010443 44 148 0.0 0.0 0.00 0.00 0.00 65 992.6
20260509005944 44 148 0.0 0.0 0.00 0.00 0.00 64 992.6
20260509005443 44 148 0.0 0.0 0.00 0.00 0.00 63 992.6
20260509004944 45 148 0.0 0.0 0.00 0.00 0.00 62 992.6
20260509004444 45 148 0.0 0.0 0.00 0.00 0.00 63 992.6
20260509003944 46 148 0.0 0.0 0.00 0.00 0.00 62 992.6
20260509003444 46 148 0.0 0.0 0.00 0.00 0.00 60 992.6
20260509002944 47 148 0.0 0.0 0.00 0.00 0.00 61 992.6
20260509002444 47 150 0.0 0.9 0.00 0.00 0.00 60 992.5
20260509001944 48 145 0.0 1.7 0.00 0.00 0.00 60 992.5
20260509001444 48 135 0.0 0.9 0.00 0.00 0.00 60 992.6
20260509000944 48 130 0.9 1.7 0.00 0.00 0.00 58 992.6
20260509000444 48 109 0.9 1.7 0.00 0.00 0.00 59 992.5
20260508235944 48 108 1.7 2.6 0.00 0.00 0.00 58 992.5
20260508235444 47 109 0.9 2.6 0.00 0.00 0.00 58 992.6
20260508234944 47 107 0.9 2.6 0.00 0.00 0.00 58 992.7
20260508234444 48 105 0.9 1.7 0.00 0.00 0.00 58 992.7
20260508233944 48 81 0.0 1.7 0.00 0.00 0.00 58 992.7
20260508233444 48 94 0.0 0.0 0.00 0.00 0.00 56 992.8
20260508232944 48 94 0.0 0.0 0.00 0.00 0.00 56 992.7
20260508232444 49 94 0.0 0.0 0.00 0.00 0.00 55 992.7
20260508231944 50 94 0.0 0.0 0.00 0.00 0.00 53 992.8
20260508231444 50 94 0.0 1.7 0.00 0.00 0.00 53 992.8
20260508230944 50 83 0.0 0.9 0.00 0.00 0.00 53 992.8
20260508230444 51 113 0.9 1.7 0.00 0.00 0.00 52 992.7
20260508225944 51 92 0.9 1.7 0.00 0.00 0.00 50 992.8
20260508225444 51 107 0.9 1.7 0.00 0.00 0.00 51 992.8
20260508224944 51 86 0.9 2.6 0.00 0.00 0.00 51 992.8
20260508224444 52 98 0.9 2.6 0.00 0.00 0.00 50 992.9
20260508223944 52 86 0.9 2.6 0.00 0.00 0.00 50 992.8
20260508223444 52 96 0.9 2.6 0.00 0.00 0.00 50 993.0
20260508222944 52 102 1.7 3.5 0.00 0.00 0.00 52 993.0
20260508222444 52 88 0.9 3.5 0.00 0.00 0.00 51 993.0
20260508221944 52 86 0.9 3.5 0.00 0.00 0.00 54 993.0
20260508221444 52 78 1.7 2.6 0.00 0.00 0.00 54 993.0
20260508220944 51 90 1.7 2.6 0.00 0.00 0.00 54 993.1
20260508220444 52 96 1.7 3.5 0.00 0.00 0.00 52 993.0
20260508215944 52 81 1.7 2.6 0.00 0.00 0.00 52 993.2
20260508215444 52 92 0.9 2.6 0.00 0.00 0.00 53 993.2
20260508214945 52 106 0.9 2.6 0.00 0.00 0.00 54 993.2
20260508214444 52 78 0.9 2.6 0.00 0.00 0.00 52 993.2
20260508213945 52 104 1.7 2.6 0.00 0.00 0.00 53 993.2
20260508213444 52 73 0.9 3.5 0.00 0.00 0.00 52 993.3
20260508212945 53 80 1.7 2.6 0.00 0.00 0.00 52 993.2
20260508212444 53 75 1.7 3.5 0.00 0.00 0.00 49 993.1
20260508211945 54 93 0.9 5.2 0.00 0.00 0.00 49 993.2
20260508211444 54 72 0.9 2.6 0.00 0.00 0.00 52 993.2
20260508210944 54 121 1.7 3.5 0.00 0.00 0.00 51 993.1
20260508210444 54 88 1.7 6.1 0.00 0.00 0.00 50 993.2
20260508205944 54 103 1.7 2.6 0.00 0.00 0.00 51 993.2
20260508205444 53 71 1.7 3.5 0.00 0.00 0.00 51 993.2
20260508204945 53 117 1.7 3.5 0.00 0.00 0.00 53 993.2
20260508204444 53 75 1.7 4.3 0.00 0.00 0.00 51 993.3
20260508203944 53 98 1.7 5.2 0.00 0.00 0.00 53 993.3
20260508203444 52 90 1.7 5.2 0.00 0.00 0.00 53 993.3
20260508202944 52 77 1.7 3.5 0.00 0.00 0.00 53 993.4
20260508202445 51 80 1.7 3.5 0.00 0.00 0.00 53 993.3
20260508201945 51 86 1.7 5.2 0.00 0.00 0.00 53 993.3
20260508201445 52 103 1.7 3.5 0.00 0.00 0.00 53 993.4
20260508200945 52 84 1.7 3.5 0.00 0.00 0.00 52 993.4
20260508200445 52 82 1.7 2.6 0.00 0.00 0.00 53 993.5
20260508195945 52 76 1.7 2.6 0.00 0.00 0.00 53 993.5
20260508195445 53 71 1.7 3.5 0.00 0.00 0.00 53 993.4
20260508194945 53 82 1.7 5.2 0.00 0.00 0.00 55 993.8
20260508194445 53 77 1.7 2.6 0.00 0.00 0.00 54 993.7
20260508193945 52 89 1.7 3.5 0.00 0.00 0.00 55 993.8
20260508193445 52 93 1.7 3.5 0.00 0.00 0.00 55 993.9
20260508192945 52 96 1.7 3.5 0.00 0.00 0.00 54 993.9
20260508192445 52 81 1.7 5.2 0.00 0.00 0.00 54 994.0
20260508191945 52 77 1.7 2.6 0.00 0.00 0.00 53 994.0
20260508191445 52 80 1.7 3.5 0.00 0.00 0.00 58 993.9
20260508190945 51 82 1.7 2.6 0.00 0.00 0.00 56 994.1
20260508190445 51 75 1.7 3.5 0.00 0.00 0.00 57 994.1
20260508185945 50 108 1.7 3.5 0.00 0.00 0.00 58 994.3
20260508185445 51 76 1.7 4.3 0.00 0.00 0.00 57 994.3
20260508184945 51 71 1.7 3.5 0.00 0.00 0.00 58 994.4
20260508184445 51 80 1.7 3.5 0.00 0.00 0.00 59 994.3
20260508183945 51 75 1.7 4.3 0.00 0.00 0.00 56 994.4
20260508183445 50 80 1.7 2.6 0.00 0.00 0.00 60 994.5
20260508182945 50 77 1.7 2.6 0.00 0.00 0.00 58 994.4
20260508182445 50 74 1.7 2.6 0.00 0.00 0.00 56 994.5
20260508181945 51 77 1.7 3.5 0.00 0.00 0.00 57 994.6
20260508181445 51 78 1.7 3.5 0.00 0.00 0.00 57 994.6
20260508180945 50 108 1.7 3.5 0.00 0.00 0.00 57 994.7
20260508180445 50 77 1.7 3.5 0.00 0.00 0.00 56 994.8
20260508175945 50 76 1.7 2.6 0.00 0.00 0.00 59 994.9
20260508175445 50 84 1.7 3.5 0.00 0.00 0.00 56 994.8
20260508174945 51 114 1.7 2.6 0.00 0.00 0.00 56 994.9
20260508174445 51 105 1.7 5.2 0.00 0.00 0.00 58 994.9
20260508173945 50 82 1.7 3.5 0.00 0.00 0.00 59 995.0
20260508173445 50 117 0.9 3.5 0.00 0.00 0.00 59 995.1
20260508172945 50 104 0.9 2.6 0.00 0.00 0.00 60 995.1
20260508172445 49 81 1.7 2.6 0.00 0.00 0.00 59 995.1
20260508171945 49 90 1.7 2.6 0.00 0.00 0.00 57 995.2
20260508171445 50 75 1.7 6.1 0.00 0.00 0.00 56 995.2
20260508170945 50 92 1.7 3.5 0.00 0.00 0.00 59 995.3
20260508170445 50 73 1.7 2.6 0.00 0.00 0.00 58 995.4
20260508165945 51 112 0.9 3.5 0.00 0.00 0.00 55 995.3
20260508165445 52 261 0.9 2.6 0.00 0.00 0.00 54 995.4
20260508164945 53 64 1.7 2.6 0.00 0.00 0.00 53 995.4
20260508164445 54 44 4.3 7.8 0.00 0.00 0.00 53 995.5
20260508163945 54 281 7.8 12.2 0.00 0.00 0.00 47 995.3
20260508163445 53 284 7.8 16.5 0.00 0.00 0.00 48 995.4
20260508162945 53 288 7.0 11.3 0.00 0.00 0.00 46 995.5
20260508162445 53 284 7.0 12.2 0.00 0.00 0.00 47 995.5
20260508161945 53 313 6.1 12.2 0.00 0.00 0.00 47 995.5
20260508161445 54 313 4.3 10.4 0.00 0.00 0.00 47 995.5
20260508160945 54 325 4.3 8.7 0.00 0.00 0.00 47 995.5
20260508160445 54 306 5.2 13.0 0.00 0.00 0.00 48 995.5
20260508155945 54 316 4.3 11.3 0.00 0.00 0.00 47 995.6
20260508155445 54 308 4.3 7.8 0.00 0.00 0.00 48 995.7
20260508154945 53 292 4.3 8.7 0.00 0.00 0.00 50 995.8
20260508154445 52 259 4.3 10.4 0.00 0.00 0.00 54 995.8
20260508153945 52 296 4.3 7.8 0.00 0.00 0.00 54 995.9
20260508153445 52 281 6.1 8.7 0.00 0.00 0.00 52 995.9
20260508152945 51 287 7.8 13.9 0.00 0.00 0.00 55 996.0
20260508152445 51 290 8.7 13.9 0.00 0.00 0.00 51 996.1
20260508151946 52 318 7.8 13.9 0.00 0.00 0.00 51 996.1
20260508151446 52 320 8.7 13.0 0.00 0.00 0.00 51 996.2
20260508150946 52 290 8.7 13.0 0.00 0.00 0.00 52 996.3
20260508150446 51 329 7.0 13.0 0.00 0.00 0.00 54 996.3
20260508145946 51 289 5.2 12.2 0.00 0.00 0.00 53 996.3
20260508145446 51 298 4.3 9.6 0.00 0.00 0.00 58 996.3
20260508144946 51 269 5.2 7.8 0.00 0.00 0.00 57 996.3
20260508144446 50 315 7.0 8.7 0.00 0.00 0.00 59 996.3
20260508143946 50 296 7.0 11.3 0.00 0.00 0.00 58 996.4
20260508143446 50 289 6.1 11.3 0.00 0.00 0.00 59 996.5
20260508142946 49 292 5.2 9.6 0.00 0.00 0.00 63 996.6
20260508142446 48 296 4.3 8.7 0.00 0.00 0.00 62 996.5
20260508141946 48 287 4.3 8.7 0.00 0.00 0.00 62 996.5
20260508141446 48 300 3.5 8.7 0.00 0.00 0.00 62 996.7
20260508140946 48 279 4.3 6.1 0.00 0.00 0.00 65 996.6
20260508140446 47 315 5.2 8.7 0.00 0.00 0.00 64 996.6
20260508135946 47 312 4.3 10.4 0.00 0.00 0.00 65 996.7
20260508135446 46 282 4.3 7.0 0.00 0.00 0.00 66 996.7
20260508134946 46 326 6.1 9.6 0.00 0.00 0.00 65 996.8
20260508134446 46 284 5.2 8.7 0.00 0.00 0.00 66 996.8
20260508133946 45 314 5.2 9.6 0.00 0.00 0.00 69 996.8
20260508133446 45 261 5.2 10.4 0.00 0.00 0.00 69 996.9
20260508132946 44 300 4.3 10.4 0.00 0.00 0.00 71 996.9
20260508132446 43 257 3.5 7.8 0.00 0.00 0.00 72 997.0
20260508131946 43 285 3.5 5.2 0.00 0.00 0.00 72 997.0
20260508131446 42 288 3.5 9.6 0.00 0.00 0.00 73 997.1
20260508130946 42 294 2.6 6.1 0.00 0.00 0.00 75 997.0
20260508130446 41 284 2.6 4.3 0.00 0.00 0.00 75 997.1
20260508125946 41 285 1.7 5.2 0.00 0.00 0.00 75 997.1
20260508125446 40 292 0.9 2.6 0.00 0.00 0.00 77 997.1
20260508124946 40 284 0.9 1.7 0.00 0.00 0.00 77 997.1
20260508124446 40 270 1.7 3.5 0.00 0.00 0.00 77 997.2
20260508123946 40 288 2.6 5.2 0.00 0.00 0.00 78 997.3
20260508123446 39 290 2.6 3.5 0.00 0.00 0.00 78 997.3
20260508122946 39 296 1.7 3.5 0.00 0.00 0.00 78 997.3
20260508122446 38 286 2.6 3.5 0.00 0.00 0.00 79 997.2
20260508121946 38 284 2.6 4.3 0.00 0.00 0.00 79 997.3
20260508121446 37 303 1.7 3.5 0.00 0.00 0.00 79 997.2
20260508120946 36 284 1.7 2.6 0.00 0.00 0.00 79 997.2
20260508120446 36 288 2.6 4.3 0.00 0.00 0.00 79 997.3
20260508115946 36 290 2.6 4.3 0.00 0.00 0.00 79 997.3
20260508115446 36 288 1.7 2.6 0.00 0.00 0.00 80 997.3
20260508114946 36 286 1.7 2.6 0.00 0.00 0.00 79 997.2
20260508114446 35 281 1.7 2.6 0.00 0.00 0.00 80 997.1
20260508113946 35 282 0.9 2.6 0.00 0.00 0.00 80 997.1
20260508113446 35 284 1.7 1.7 0.00 0.00 0.00 80 997.1
20260508112946 35 284 1.7 2.6 0.00 0.00 0.00 79 997.0
20260508112446 35 277 1.7 2.6 0.00 0.00 0.00 80 997.1
20260508111946 35 282 0.9 2.6 0.00 0.00 0.00 81 997.0
20260508111447 34 279 0.9 1.7 0.00 0.00 0.00 82 997.0
20260508110946 34 281 0.9 1.7 0.00 0.00 0.00 82 996.9
20260508110447 33 273 0.0 2.6 0.00 0.00 0.00 83 997.0
20260508105946 33 166 0.0 0.0 0.00 0.00 0.00 83 997.0
20260508105446 32 159 0.0 0.0 0.00 0.00 0.00 83 996.9
20260508104946 32 159 0.0 0.0 0.00 0.00 0.00 82 996.9
20260508104446 32 159 0.0 0.0 0.00 0.00 0.00 81 996.9
20260508103946 32 159 0.0 0.0 0.00 0.00 0.00 81 996.9
20260508103447 32 159 0.0 0.0 0.00 0.00 0.00 80 996.9
20260508102947 32 159 0.0 0.0 0.00 0.00 0.00 80 996.8